TimeCST,TemperatureF,Dew PointF,Humidity,Sea Level PressureIn,VisibilityMPH,Wind Direction,Wind SpeedMPH,Gust SpeedMPH,PrecipitationIn,Events,Conditions,WindDirDegrees,DateUTC
12:53 AM,30.0,27.0,88,30.27,7.0,SW,5.8,-,N/A,,Clear,220,2011-12-08 06:53:00
1:53 AM,28.0,26.1,92,30.27,6.0,SW,3.5,-,N/A,,Clear,220,2011-12-08 07:53:00
2:53 AM,28.9,27.0,92,30.28,6.0,SSW,4.6,-,N/A,,Clear,210,2011-12-08 08:53:00
3:53 AM,28.0,25.0,88,30.27,7.0,SSW,3.5,-,N/A,,Clear,210,2011-12-08 09:53:00
4:53 AM,28.0,25.0,88,30.27,7.0,Calm,Calm,-,N/A,,Clear,0,2011-12-08 10:53:00
5:53 AM,28.0,26.1,92,30.28,6.0,Calm,Calm,-,N/A,,Clear,0,2011-12-08 11:53:00
6:53 AM,28.9,26.1,89,30.30,6.0,SSW,6.9,-,N/A,,Clear,210,2011-12-08 12:53:00
7:53 AM,30.0,28.0,92,30.32,4.0,SW,5.8,-,N/A,,Clear,220,2011-12-08 13:53:00
8:53 AM,33.8,30.2,87,30.34,6.0,SW,6.9,-,N/A,,Clear,220,2011-12-08 14:53:00
9:53 AM,37.9,30.9,76,30.35,10.0,SSW,5.8,-,N/A,,Clear,200,2011-12-08 15:53:00
10:53 AM,39.9,28.9,65,30.34,10.0,SSW,10.4,-,N/A,,Clear,210,2011-12-08 16:53:00
11:53 AM,43.0,28.0,56,30.31,10.0,SSW,6.9,-,N/A,,Clear,200,2011-12-08 17:53:00
12:53 PM,44.1,27.0,51,30.28,10.0,SW,6.9,-,N/A,,Clear,220,2011-12-08 18:53:00
1:53 PM,44.1,28.0,53,30.26,10.0,SSW,8.1,-,N/A,,Clear,210,2011-12-08 19:53:00
2:53 PM,44.6,28.4,53,30.23,10.0,SSW,6.9,-,N/A,,Clear,200,2011-12-08 20:53:00
3:53 PM,44.6,28.4,53,30.23,10.0,SW,6.9,-,N/A,,Clear,220,2011-12-08 21:53:00
4:53 PM,41.0,27.0,57,30.24,10.0,South,3.5,-,N/A,,Clear,190,2011-12-08 22:53:00
5:53 PM,37.4,28.4,70,30.22,10.0,SSE,3.5,-,N/A,,Clear,150,2011-12-08 23:53:00
6:53 PM,34.0,27.0,75,30.23,10.0,South,3.5,-,N/A,,Clear,170,2011-12-09 00:53:00
7:53 PM,37.0,25.0,62,30.24,10.0,Calm,Calm,-,N/A,,Clear,0,2011-12-09 01:53:00
8:53 PM,28.9,26.1,89,30.24,10.0,Calm,Calm,-,N/A,,Clear,0,2011-12-09 02:53:00
9:53 PM,28.9,25.0,85,30.24,10.0,Calm,Calm,-,N/A,,Clear,0,2011-12-09 03:53:00
10:53 PM,28.0,25.0,88,30.25,10.0,Calm,Calm,-,N/A,,Clear,0,2011-12-09 04:53:00
11:53 PM,27.0,24.1,89,30.25,10.0,Calm,Calm,-,N/A,,Clear,0,2011-12-09 05:53:00